DW1637 Weather Reports


Display with metric or nautical units.
time (UTC)temp
F
wind
direction
speed
MPH
gust
MPH
rain 1hr
in
rain 24hr
in
rain mn
in
humidity
%
barometer
mb
20260505075203 69 205 3.0 7.0 0.00 0.00 0.00 82 1007.6
20260505074704 69 192 2.0 8.0 0.00 0.00 0.00 82 1007.5
20260505074204 69 154 4.0 12.0 0.00 0.00 0.00 82 1007.6
20260505073704 69 146 3.0 8.0 0.00 0.00 0.00 81 1007.6
20260505073204 69 231 2.0 14.0 0.00 0.00 0.00 81 1007.6
20260505072703 69 164 5.0 15.0 0.00 0.00 0.00 81 1007.6
20260505072205 69 146 2.0 12.0 0.00 0.00 0.00 81 1007.5
20260505071704 69 163 3.0 9.0 0.00 0.00 0.00 80 1007.6
20260505071204 69 183 3.0 9.0 0.00 0.00 0.00 80 1007.7
20260505070704 69 216 3.0 15.0 0.00 0.00 0.00 79 1007.8
20260505070204 69 154 5.0 9.0 0.00 0.00 0.00 79 1008.0
20260505065704 69 196 3.0 9.0 0.00 0.00 0.00 79 1008.1
20260505065204 69 148 3.0 9.0 0.00 0.00 0.00 79 1008.0
20260505064704 69 196 3.0 8.0 0.00 0.00 0.00 79 1008.0
20260505064204 69 155 3.0 6.0 0.00 0.00 0.00 78 1008.1
20260505063704 69 146 3.0 15.0 0.00 0.00 0.00 78 1008.2
20260505063204 69 194 3.0 9.0 0.00 0.00 0.00 78 1008.3
20260505062205 69 186 3.0 6.0 0.00 0.00 0.00 78 1008.5
20260505061704 69 141 3.0 12.0 0.00 0.00 0.00 78 1008.6
20260505060204 69 191 4.0 9.0 0.00 0.00 0.00 78 1008.7
20260505055704 69 198 5.0 8.0 0.00 0.00 0.00 77 1008.6
20260505055205 70 121 1.0 8.0 0.00 0.00 0.00 77 1008.5
20260505054704 70 142 3.0 9.0 0.00 0.00 0.00 77 1008.5
20260505053704 70 150 3.0 6.0 0.00 0.00 0.00 77 1008.5
20260505052704 70 196 3.0 8.0 0.00 0.00 0.00 77 1008.6
20260505052204 70 189 2.0 6.0 0.00 0.00 0.00 77 1008.6
20260505051704 70 168 3.0 8.0 0.00 0.00 0.00 76 1008.6
20260505051204 70 130 5.0 9.0 0.00 0.00 0.00 76 1008.5
20260505050703 70 183 3.0 8.0 0.00 0.00 0.00 76 1008.6
20260505050203 70 195 4.0 8.0 0.00 0.00 0.00 76 1008.6
20260505041704 70 206 3.0 6.0 0.00 0.00 0.00 75 1008.8
20260505041204 70 174 2.0 9.0 0.00 0.00 0.00 75 1008.8
20260505040704 70 172 4.0 12.0 0.00 0.00 0.00 75 1008.9
20260505040204 70 166 2.0 7.0 0.00 0.00 0.00 74 1008.8
20260505035704 70 158 1.0 5.0 0.00 0.00 0.00 74 1008.8
20260505035204 70 185 4.0 12.0 0.00 0.00 0.00 74 1008.8
20260505034704 70 148 6.0 14.0 0.00 0.00 0.00 74 1009.0
20260505034204 70 150 3.0 6.0 0.00 0.00 0.00 73 1009.0
20260505033704 70 147 2.0 8.0 0.00 0.00 0.00 73 1008.9
20260505033203 71 156 3.0 7.0 0.00 0.00 0.00 73 1008.8
20260505032704 71 148 6.0 12.0 0.00 0.00 0.00 72 1008.8
20260505032204 71 132 2.0 7.0 0.00 0.00 0.00 72 1008.7
20260505031204 71 166 2.0 6.0 0.00 0.00 0.00 71 1008.8
20260505030204 71 143 2.0 8.0 0.00 0.00 0.00 70 1008.7
20260505025204 71 137 5.0 8.0 0.00 0.00 0.00 70 1008.6
20260505024703 71 153 3.0 8.0 0.00 0.00 0.00 70 1008.6
20260505024203 72 152 2.0 7.0 0.00 0.00 0.00 69 1008.6
20260505023704 72 157 2.0 7.0 0.00 0.00 0.00 69 1008.6
20260505023204 72 145 4.0 8.0 0.00 0.00 0.00 69 1008.4
20260505022204 72 181 3.0 6.0 0.00 0.00 0.00 68 1008.4
20260505021703 72 166 5.0 9.0 0.00 0.00 0.00 68 1008.2
20260505021204 72 155 3.0 9.0 0.00 0.00 0.00 67 1008.0
20260505020703 72 157 2.0 8.0 0.00 0.00 0.00 67 1008.0
20260505015704 73 151 3.0 13.0 0.00 0.00 0.00 67 1008.0
20260505015204 73 151 3.0 10.0 0.00 0.00 0.00 66 1008.0
20260505014704 73 139 2.0 7.0 0.00 0.00 0.00 66 1008.1
20260505014204 73 134 3.0 5.0 0.00 0.00 0.00 65 1008.0
20260505013703 73 129 5.0 12.0 0.00 0.00 0.00 65 1008.0
20260505013203 73 156 2.0 8.0 0.00 0.00 0.00 64 1008.0
20260505012203 74 125 3.0 12.0 0.00 0.00 0.00 63 1007.8
20260505011703 74 150 3.0 7.0 0.00 0.00 0.00 62 1007.8
20260505011205 74 141 3.0 6.0 0.00 0.00 0.00 61 1007.8
20260505010704 75 125 3.0 7.0 0.00 0.00 0.00 61 1007.7
20260505010204 75 145 3.0 6.0 0.00 0.00 0.00 60 1007.8
20260505005704 75 144 4.0 7.0 0.00 0.00 0.00 60 1007.9
20260505005205 75 124 2.0 7.0 0.00 0.00 0.00 60 1007.8
20260505004704 76 120 2.0 6.0 0.00 0.00 0.00 59 1007.8
20260505004204 76 138 2.0 7.0 0.00 0.00 0.00 58 1007.9
20260505003704 76 205 2.0 8.0 0.00 0.00 0.00 58 1008.1
20260505003203 76 154 3.0 9.0 0.00 0.00 0.00 57 1008.1
20260505002703 77 128 3.0 7.0 0.00 0.00 0.00 57 1008.1
20260505002204 77 174 3.0 6.0 0.00 0.00 0.00 57 1008.1
20260505001704 77 179 2.0 6.0 0.00 0.00 0.00 56 1008.1
20260505000704 78 167 3.0 5.0 0.00 0.00 0.00 54 1008.2
20260505000204 78 234 3.0 7.0 0.00 0.00 0.00 54 1008.3
20260504235704 78 148 1.0 9.0 0.00 0.00 0.00 53 1008.4
20260504235204 78 148 3.0 7.0 0.00 0.00 0.00 53 1008.3
20260504234703 79 136 4.0 9.0 0.00 0.00 0.00 52 1008.4
20260504234204 79 158 5.0 12.0 0.00 0.00 0.00 51 1008.3
20260504233704 79 175 3.0 9.0 0.00 0.00 0.00 50 1008.3
20260504233204 79 199 5.0 12.0 0.00 0.00 0.00 51 1008.4
20260504232704 79 146 2.0 8.0 0.00 0.00 0.00 50 1008.4
20260504232204 79 197 3.0 14.0 0.00 0.00 0.00 50 1008.4
20260504231704 80 144 6.0 13.0 0.00 0.00 0.00 50 1008.5
20260504231204 80 156 3.0 13.0 0.00 0.00 0.00 50 1008.6
20260504230704 80 154 6.0 12.0 0.00 0.00 0.00 50 1008.7
20260504230205 79 167 3.0 15.0 0.00 0.00 0.00 49 1008.8
20260504225704 79 151 6.0 15.0 0.00 0.00 0.00 49 1008.9
20260504225204 79 155 3.0 12.0 0.00 0.00 0.00 49 1008.8
20260504224704 79 138 4.0 12.0 0.00 0.00 0.00 49 1009.1
20260504224204 79 143 3.0 7.0 0.00 0.00 0.00 48 1009.3
20260504223703 79 156 6.0 12.0 0.00 0.00 0.00 47 1009.2
20260504223203 79 151 7.0 17.0 0.00 0.00 0.00 47 1009.2
20260504222703 80 149 5.0 13.0 0.00 0.00 0.00 47 1009.4
20260504222204 80 197 5.0 14.0 0.00 0.00 0.00 47 1009.4
20260504221704 80 195 5.0 10.0 0.00 0.00 0.00 46 1009.3
20260504221203 80 161 6.0 12.0 0.00 0.00 0.00 45 1009.2
20260504220703 80 147 2.0 9.0 0.00 0.00 0.00 45 1009.4
20260504215203 80 188 8.0 15.0 0.00 0.00 0.00 45 1009.7
20260504214703 80 167 3.0 9.0 0.00 0.00 0.00 47 1009.7
20260504214204 80 212 2.0 12.0 0.00 0.00 0.00 45 1009.7
20260504213704 80 182 6.0 12.0 0.00 0.00 0.00 45 1009.9
20260504213204 80 148 4.0 8.0 0.00 0.00 0.00 46 1010.1
20260504212703 80 147 2.0 14.0 0.00 0.00 0.00 47 1010.3
20260504211704 80 147 6.0 14.0 0.00 0.00 0.00 46 1010.6
20260504211203 80 171 4.0 12.0 0.00 0.00 0.00 45 1010.3
20260504210704 80 171 7.0 13.0 0.00 0.00 0.00 45 1010.3
20260504210204 80 150 7.0 14.0 0.00 0.00 0.00 47 1010.6
20260504205704 79 124 7.0 14.0 0.00 0.00 0.00 46 1010.6
20260504205203 79 154 6.0 12.0 0.00 0.00 0.00 47 1010.8
20260504204703 79 133 5.0 14.0 0.00 0.00 0.00 47 1010.9
20260504204204 79 142 4.0 12.0 0.00 0.00 0.00 47 1011.0
20260504203704 79 177 6.0 12.0 0.00 0.00 0.00 46 1010.9
20260504203204 79 178 4.0 8.0 0.00 0.00 0.00 47 1011.1
20260504202704 79 144 5.0 10.0 0.00 0.00 0.00 46 1011.2
20260504201704 79 205 2.0 8.0 0.00 0.00 0.00 47 1011.4
20260504201203 79 150 3.0 8.0 0.00 0.00 0.00 47 1011.5
20260504200703 79 179 5.0 13.0 0.00 0.00 0.00 47 1011.6
20260504200204 80 131 7.0 13.0 0.00 0.00 0.00 45 1011.6
20260504195705 80 164 6.0 14.0 0.00 0.00 0.00 47 1011.7
20260504195204 80 177 3.0 14.0 0.00 0.00 0.00 47 1011.8
20260504194704 80 128 5.0 14.0 0.00 0.00 0.00 48 1011.9
20260504194204 80 197 5.0 12.0 0.00 0.00 0.00 46 1012.0
20260504193704 80 191 4.0 12.0 0.00 0.00 0.00 45 1012.1
20260504193203 80 263 6.0 10.0 0.00 0.00 0.00 46 1012.2
20260504192204 80 122 3.0 17.0 0.00 0.00 0.00 49 1012.3
20260504191703 80 126 6.0 14.0 0.00 0.00 0.00 47 1012.4
20260504191204 80 190 2.0 8.0 0.00 0.00 0.00 46 1012.5
20260504190704 80 77 5.0 13.0 0.00 0.00 0.00 47 1012.6
20260504185704 80 179 4.0 8.0 0.00 0.00 0.00 47 1012.8
20260504185204 80 219 5.0 8.0 0.00 0.00 0.00 49 1012.8
20260504184704 80 184 3.0 8.0 0.00 0.00 0.00 48 1012.8
20260504184203 80 220 5.0 7.0 0.00 0.00 0.00 49 1013.0
20260504183704 79 148 3.0 8.0 0.00 0.00 0.00 49 1013.0
20260504183204 79 215 3.0 14.0 0.00 0.00 0.00 49 1013.1
20260504182704 79 162 5.0 12.0 0.00 0.00 0.00 47 1013.4
20260504182204 80 173 8.0 18.0 0.00 0.00 0.00 46 1013.3
20260504181204 80 141 3.0 10.0 0.00 0.00 0.00 48 1013.5
20260504180203 80 177 9.0 15.0 0.00 0.00 0.00 44 1013.6
20260504175703 80 158 6.0 20.0 0.00 0.00 0.00 45 1013.8
20260504175204 80 170 5.0 12.0 0.00 0.00 0.00 43 1013.9
20260504174704 79 232 3.0 9.0 0.00 0.00 0.00 46 1013.9
20260504174204 79 197 4.0 13.0 0.00 0.00 0.00 51 1013.7
20260504173704 79 146 5.0 16.0 0.00 0.00 0.00 48 1013.8
20260504172703 78 151 4.0 10.0 0.00 0.00 0.00 50 1013.9
20260504172204 78 131 8.0 14.0 0.00 0.00 0.00 46 1013.8
20260504171704 78 188 7.0 18.0 0.00 0.00 0.00 45 1013.9
20260504171204 78 156 7.0 20.0 0.00 0.00 0.00 48 1014.0
20260504170704 79 140 7.0 14.0 0.00 0.00 0.00 48 1014.1
20260504170204 78 140 7.0 15.0 0.00 0.00 0.00 48 1014.1
20260504160204 76 283 2.0 9.0 0.00 0.00 0.00 53 1014.8
20260504150704 75 138 5.0 13.0 0.00 0.00 0.00 57 1014.9
20260504150204 74 188 3.0 8.0 0.00 0.00 0.00 57 1015.0
20260504141203 71 201 3.0 7.0 0.00 0.00 0.00 63 1015.1
20260504140204 70 190 2.0 7.0 0.00 0.00 0.00 65 1015.0
20260504130204 60 203 2.0 3.0 0.00 0.00 0.00 80 1015.1
20260504110704 56 184 0.0 1.0 0.00 0.00 0.00 87 1014.5
20260504110204 56 184 0.0 2.0 0.00 0.00 0.00 86 1014.4
20260504100203 57 184 0.0 2.0 0.00 0.00 0.00 83 1014.9
20260504081704 59 196 0.0 1.0 0.00 0.00 0.00 80 1014.7
20260504080704 59 196 0.0 1.0 0.00 0.00 0.00 80 1014.8